Powrót do katalogu

ERS 18

LostNaukaHEO
NORAD 2767·PAYLOAD·🇺🇸 United States

Wystrzelony Apr 28, 1967 z Cape Canaveral Space Force Station

Loading…

Następne Przeloty (najbliższe 24 godziny)

TLE

NieaktualneSource: Space-Track

Epoka: Jan 8, 1975, 22:44 UTC

1 02767U 67040C   75008.94786308 -.00000460  00000-0  10000-3 0  9999
2 02767  35.1720 156.4408 7415800 186.7973 149.8305  0.50861092 13832

Śledź ERS 18 w czasie rzeczywistym z AllMySat

Download on the App Store